This is the latest recevied weather packets stored in our database for station/object M0JUI-1. If no packets are shown the sender has not sent any weather packets the latest 10 day(s).
| Time | Temp. | Humidity | Pressure | Rain* | Wind** | Luminosity | Snow |
|---|---|---|---|---|---|---|---|
| 1778175087 | 13.33° C | 82% | 1014.4 hPa | 0 mm | - | 25 W/m² | - |
| 1778174787 | 13.33° C | 84% | 1014.6 hPa | 0 mm | - | 19 W/m² | - |
| 1778174487 | 13.33° C | 84% | 1014.5 hPa | 0 mm | - | 12 W/m² | - |
| 1778174187 | 13.33° C | 83% | 1014.7 hPa | 0 mm | - | 14 W/m² | - |
| 1778173887 | 13.33° C | 82% | 1014.6 hPa | 0 mm | - | 19 W/m² | - |
| 1778173587 | 13.33° C | 81% | 1014.7 hPa | 0 mm | - | 24 W/m² | - |
| 1778173287 | 13.33° C | 80% | 1014.5 hPa | 0 mm | - | 30 W/m² | - |
| 1778172987 | 13.89° C | 80% | 1014.5 hPa | 0 mm | - | 25 W/m² | - |
| 1778172675 | 13.89° C | 79% | 1014.6 hPa | 0 mm | - | 27 W/m² | - |
| 1778172375 | 13.89° C | 79% | 1014.6 hPa | 0 mm | - | 32 W/m² | - |
| 1778172076 | 13.89° C | 79% | 1014.7 hPa | 0 mm | - | 41 W/m² | - |
| 1778171763 | 13.89° C | 78% | 1014.4 hPa | 0 mm | - | 47 W/m² | - |
| 1778171463 | 14.44° C | 76% | 1014.5 hPa | 0 mm | - | 55 W/m² | - |
| 1778171163 | 14.44° C | 75% | 1014.5 hPa | 0 mm | - | 67 W/m² | - |
| 1778170852 | 15° C | 75% | 1014.5 hPa | 0 mm | - | 113 W/m² | - |
| 1778170551 | 15° C | 76% | 1014.5 hPa | 0 mm | - | 160 W/m² | - |
| 1778170252 | 15° C | 76% | 1014.6 hPa | 0 mm | - | 174 W/m² | - |
| 1778169951 | 14.44° C | 77% | 1014.6 hPa | 0 mm | - | 178 W/m² | - |
| 1778169651 | 14.44° C | 75% | 1014.6 hPa | 0 mm | - | 160 W/m² | - |
| 1778169351 | 14.44° C | 77% | 1014.5 hPa | 0 mm | - | 120 W/m² | - |
| 1778169051 | 14.44° C | 77% | 1014.7 hPa | 0 mm | - | 135 W/m² | - |
| 1778168739 | 14.44° C | 76% | 1014.7 hPa | 0 mm | - | 172 W/m² | - |
| 1778168439 | 15° C | 76% | 1014.6 hPa | 0 mm | - | 213 W/m² | - |
| 1778168139 | 14.44° C | 77% | 1014.7 hPa | 0 mm | - | 238 W/m² | - |
| 1778167844 | 14.44° C | 76% | 1014.8 hPa | 0 mm | - | 174 W/m² | - |
* Rain latest hour (hover to see other rain measurements)
** Current wind speed in m/s (hover to see current wind gust speed)